| time (UTC) | temp F | wind direction | speed knots | gust knots | rain 1hr in | rain 24hr in | rain mn in | humidity % | barometer mb |
| 20260505053107 | 75 | 184 | 2.6 | 7.0 | 0.00 | 0.00 | 0.00 | 70 | 983.5 |
| 20260505051559 | 75 | 155 | 1.7 | 6.1 | 0.00 | 0.00 | 0.00 | 70 | 983.5 |
| 20260505041602 | 75 | 219 | 2.6 | 10.4 | 0.00 | 0.00 | 0.00 | 69 | 983.6 |
| 20260505040057 | 75 | 225 | 2.6 | 8.7 | 0.00 | 0.00 | 0.00 | 69 | 983.9 |
| 20260505034553 | 76 | 180 | 2.6 | 9.6 | 0.00 | 0.00 | 0.00 | 69 | 983.9 |
| 20260505033052 | 75 | 186 | 1.7 | 8.7 | 0.00 | 0.00 | 0.00 | 68 | 983.7 |
| 20260505031553 | 76 | 121 | 0.9 | 6.1 | 0.00 | 0.00 | 0.00 | 68 | 983.8 |
| 20260505030109 | 76 | 79 | 0.9 | 7.8 | 0.00 | 0.00 | 0.00 | 68 | 983.9 |
| 20260505024556 | 76 | 192 | 2.6 | 7.8 | 0.00 | 0.00 | 0.00 | 67 | 983.9 |
| 20260505023050 | 76 | 136 | 1.7 | 7.8 | 0.00 | 0.00 | 0.00 | 67 | 983.8 |
| 20260505021551 | 76 | 203 | 2.6 | 9.6 | 0.00 | 0.00 | 0.00 | 66 | 983.6 |
| 20260505020049 | 76 | 265 | 1.7 | 7.8 | 0.00 | 0.00 | 0.00 | 66 | 983.6 |
| 20260505014603 | 77 | 85 | 1.7 | 5.2 | 0.00 | 0.00 | 0.00 | 65 | 983.6 |
| 20260505013051 | 77 | 172 | 2.6 | 8.7 | 0.00 | 0.00 | 0.00 | 64 | 983.6 |
| 20260505011547 | 77 | 195 | 3.5 | 12.2 | 0.00 | 0.00 | 0.00 | 63 | 983.8 |
| 20260505010055 | 77 | 239 | 4.3 | 9.6 | 0.00 | 0.00 | 0.00 | 63 | 983.8 |
| 20260505004550 | 78 | 107 | 4.3 | 13.9 | 0.00 | 0.00 | 0.00 | 62 | 983.6 |
| 20260505003055 | 78 | 215 | 2.6 | 12.2 | 0.00 | 0.00 | 0.00 | 62 | 983.7 |
| 20260505001545 | 79 | 240 | 3.5 | 9.6 | 0.00 | 0.00 | 0.00 | 61 | 983.9 |
| 20260505000041 | 79 | 332 | 4.3 | 12.2 | 0.00 | 0.00 | 0.00 | 61 | 984.1 |
| 20260504234543 | 79 | 175 | 5.2 | 13.9 | 0.00 | 0.00 | 0.00 | 60 | 984.1 |
| 20260504233038 | 79 | 195 | 2.6 | 13.0 | 0.00 | 0.00 | 0.00 | 60 | 984.3 |
| 20260504231536 | 80 | 104 | 3.5 | 13.0 | 0.00 | 0.00 | 0.00 | 59 | 984.1 |
| 20260504230035 | 80 | 212 | 5.2 | 13.0 | 0.00 | 0.00 | 0.00 | 58 | 984.4 |
| 20260504224532 | 82 | 136 | 3.5 | 13.0 | 0.00 | 0.00 | 0.00 | 57 | 984.5 |
| 20260504223037 | 81 | 264 | 4.3 | 12.2 | 0.00 | 0.00 | 0.00 | 57 | 984.6 |
| 20260504221527 | 82 | 174 | 4.3 | 15.6 | 0.00 | 0.00 | 0.00 | 56 | 984.5 |
| 20260504220030 | 81 | 207 | 5.2 | 14.8 | 0.00 | 0.00 | 0.00 | 56 | 984.7 |
| 20260504214523 | 82 | 237 | 7.0 | 13.9 | 0.00 | 0.00 | 0.00 | 56 | 985.0 |
| 20260504213025 | 82 | 152 | 6.1 | 12.2 | 0.00 | 0.00 | 0.00 | 55 | 985.2 |
| 20260504211529 | 83 | 72 | 3.5 | 13.0 | 0.00 | 0.00 | 0.00 | 55 | 985.3 |
| 20260504210013 | 82 | 210 | 2.6 | 13.0 | 0.00 | 0.00 | 0.00 | 56 | 985.7 |
| 20260504204511 | 81 | 265 | 5.2 | 13.9 | 0.00 | 0.00 | 0.00 | 56 | 986.0 |
| 20260504203008 | 82 | 83 | 4.3 | 9.6 | 0.00 | 0.00 | 0.00 | 54 | 986.3 |
| 20260504201504 | 82 | 96 | 3.5 | 10.4 | 0.00 | 0.00 | 0.00 | 55 | 986.6 |
| 20260504200003 | 81 | 182 | 2.6 | 11.3 | 0.00 | 0.00 | 0.00 | 55 | 986.9 |
| 20260504194604 | 81 | 238 | 5.2 | 12.2 | 0.00 | 0.00 | 0.00 | 54 | 987.3 |
| 20260504193107 | 81 | 149 | 4.3 | 15.6 | 0.00 | 0.00 | 0.00 | 54 | 987.3 |
| 20260504191609 | 80 | 217 | 3.5 | 10.4 | 0.00 | 0.00 | 0.00 | 55 | 987.5 |
| 20260504190105 | 80 | 247 | 3.5 | 14.8 | 0.00 | 0.00 | 0.00 | 55 | 988.0 |
| 20260504184553 | 80 | 219 | 5.2 | 13.0 | 0.00 | 0.00 | 0.00 | 54 | 988.1 |
| 20260504183046 | 79 | 250 | 4.3 | 13.0 | 0.00 | 0.00 | 0.00 | 55 | 988.4 |
| 20260504181547 | 79 | 178 | 4.3 | 13.9 | 0.00 | 0.00 | 0.00 | 56 | 988.4 |
| 20260504180040 | 78 | 208 | 6.1 | 11.3 | 0.00 | 0.00 | 0.00 | 56 | 988.7 |
| 20260504174543 | 78 | 177 | 4.3 | 13.9 | 0.00 | 0.00 | 0.00 | 55 | 989.0 |
| 20260504173035 | 77 | 160 | 2.6 | 10.4 | 0.00 | 0.00 | 0.00 | 57 | 989.1 |
| 20260504171534 | 76 | 187 | 3.5 | 13.9 | 0.00 | 0.00 | 0.00 | 58 | 989.3 |
| 20260504081508 | 66 | 229 | 1.7 | 6.1 | 0.00 | 0.00 | 0.00 | 60 | 991.9 |